Date String (YYYY-MM-DD hh:mm:ss) UTC,Instrument flags,Ambient pressure (hPa),Sample flow (lpm),Bypass flow (lpm),Sample temperature (°C),Ambient temperature (°C),ASC tube jacket temperature (°C),LED temperature (°C),Box temperature (°C),Sample RH (%),Span deviation,Mass concentration (μg/m³),Mass concentration (μg/m³),Mass concentration (μg/m³)
DateTimeUTC,F1_M11,P_M11,Q1_M11,Q2_M11,T1_M11,T2_M11,T3_M11,T4_M11,T5_M11,U1_M11,ZSPAN_M11,X0_M11,X2_M11,X1_M11
2022-10-20 05:00:00,,0832.8,4.99,0.00,30.2,28.7,00.0,39.1,32.0,06.6,0000.0,0009.40,0004.34,0003.57
2022-10-20 05:01:00,,0832.9,4.99,0.00,30.2,28.7,00.0,39.1,32.0,06.7,0000.0,0009.37,0004.31,0003.55
2022-10-20 05:02:00,,0832.9,5.02,0.00,30.2,28.7,00.0,39.1,32.0,06.7,0000.0,0008.96,0004.30,0003.54
2022-10-20 05:03:00,,0832.8,5.00,0.00,30.2,28.7,00.0,39.1,32.0,06.6,0000.0,0008.90,0004.30,0003.53
2022-10-20 05:04:00,,0832.8,5.00,0.00,30.2,28.7,00.0,39.1,32.0,06.6,0000.0,0009.66,0004.26,0003.51
2022-10-20 05:05:00,,0832.8,5.00,0.00,30.2,28.6,00.0,39.1,32.0,06.7,0000.0,0010.03,0004.22,0003.50
2022-10-20 05:06:00,,0832.8,5.00,0.00,30.2,28.6,00.0,39.1,32.0,06.7,0000.0,0011.52,0004.24,0003.48
2022-10-20 05:07:00,,0832.8,5.00,0.00,30.2,28.6,00.0,39.1,32.0,06.7,0000.0,0011.62,0004.26,0003.48
2022-10-20 05:08:00,,0832.8,5.02,0.00,30.2,28.6,00.0,39.1,32.0,06.7,0000.0,0011.53,0004.20,0003.47
2022-10-20 05:09:00,,0832.8,5.00,0.00,30.2,28.6,00.0,39.1,32.0,06.7,0000.0,0011.87,0004.14,0003.44
2022-10-20 05:10:00,,0832.8,5.00,0.00,30.2,28.6,00.0,39.1,31.9,06.7,0000.0,0011.89,0004.13,0003.43
2022-10-20 05:11:00,,0832.8,5.01,0.00,30.2,28.5,00.0,39.1,32.0,06.7,0000.0,0011.70,0004.13,0003.43
2022-10-20 05:12:00,,0832.8,5.00,0.00,30.2,28.5,00.0,39.1,32.0,06.8,0000.0,0011.39,0004.14,0003.42
2022-10-20 05:13:00,,0832.8,5.00,0.00,30.2,28.5,00.0,39.1,31.9,06.8,0000.0,0011.36,0004.16,0003.42
2022-10-20 05:14:00,,0832.8,5.00,0.00,30.2,28.5,00.0,39.1,31.9,06.9,0000.0,0011.71,0004.15,0003.43
2022-10-20 05:15:00,,0832.8,5.00,0.00,30.1,28.5,00.0,39.1,31.9,06.8,0000.0,0011.57,0004.15,0003.43
2022-10-20 05:16:00,,0832.7,5.00,0.00,30.2,28.5,00.0,39.1,31.9,06.7,0000.0,0011.21,0004.17,0003.44
2022-10-20 05:17:00,,0832.7,5.02,0.00,30.2,28.5,00.0,39.0,31.9,06.8,0000.0,0009.76,0004.12,0003.45
2022-10-20 05:18:00,,0832.8,5.00,0.00,30.1,28.5,00.0,39.0,31.9,06.8,0000.0,0009.34,0004.10,0003.46
2022-10-20 05:19:00,,0832.8,4.99,0.00,30.1,28.5,00.0,39.0,31.9,06.8,0000.0,0009.67,0004.10,0003.45
2022-10-20 05:20:00,,0832.8,5.01,0.00,30.1,28.5,00.0,39.0,31.9,06.8,0000.0,0009.50,0004.08,0003.46
2022-10-20 05:21:00,,0832.8,4.99,0.00,30.1,28.5,00.0,39.0,31.9,06.7,0000.0,0009.41,0004.08,0003.48
2022-10-20 05:22:00,,0832.8,4.99,0.00,30.1,28.5,00.0,39.0,31.9,06.7,0000.0,0009.94,0004.07,0003.49
2022-10-20 05:23:00,,0832.7,5.01,0.00,30.1,28.5,00.0,39.0,31.9,06.7,0000.0,0009.93,0004.11,0003.51
2022-10-20 05:24:00,,0832.8,4.99,0.00,30.1,28.4,00.0,39.0,31.9,06.8,0000.0,0009.93,0004.09,0003.52
2022-10-20 05:25:00,,0832.7,5.01,0.00,30.1,28.4,00.0,39.0,31.9,06.8,0000.0,0009.57,0004.10,0003.52
2022-10-20 05:26:00,,0832.7,4.99,0.00,30.1,28.4,00.0,39.0,31.9,06.7,0000.0,0009.38,0004.11,0003.52
2022-10-20 05:27:00,,0832.7,5.01,0.00,30.1,28.4,00.0,39.0,31.8,06.8,0000.6,0010.18,0004.13,0003.53
2022-10-20 05:28:00,,0832.7,4.98,0.00,30.1,28.4,00.0,39.0,31.8,06.8,0001.6,0010.36,0004.15,0003.53
2022-10-20 05:29:00,,0832.7,5.01,0.00,30.1,28.4,00.0,39.0,31.8,06.9,0002.0,0010.45,0004.15,0003.53
2022-10-20 05:30:00,,0832.7,4.99,0.00,30.1,28.4,00.0,39.0,31.7,06.9,0002.0,0010.94,0004.16,0003.53
2022-10-20 05:31:00,,0832.7,5.00,0.00,30.1,28.4,00.0,39.0,31.8,07.1,0000.7,0011.31,0004.17,0003.52
2022-10-20 05:32:00,,0832.6,5.01,0.00,30.1,28.4,00.0,39.0,31.8,06.9,0000.0,0011.44,0004.17,0003.50
2022-10-20 05:33:00,,0832.6,5.00,0.00,30.0,28.4,00.0,39.0,31.8,06.8,0000.0,0010.94,0004.15,0003.49
2022-10-20 05:34:00,,0832.6,4.99,0.00,30.0,28.4,00.0,39.0,31.8,06.7,0000.3,0010.68,0004.11,0003.49
2022-10-20 05:35:00,,0832.6,5.01,0.00,30.0,28.4,00.0,39.0,31.8,06.8,-000.6,0010.69,0004.10,0003.49
2022-10-20 05:36:00,,0832.6,4.99,0.00,30.0,28.3,00.0,39.0,31.8,06.9,-001.0,0011.27,0004.13,0003.48
2022-10-20 05:37:00,,0832.6,5.00,0.00,30.0,28.3,00.0,38.9,31.7,06.9,-001.6,0011.51,0004.21,0003.49
2022-10-20 05:38:00,,0832.6,5.00,0.00,30.0,28.3,00.0,38.9,31.8,06.9,-001.4,0011.20,0004.22,0003.49
2022-10-20 05:39:00,,0832.5,5.00,0.00,30.0,28.3,00.0,38.9,31.8,06.8,0000.0,0011.62,0004.22,0003.49
2022-10-20 05:40:00,,0832.5,5.00,0.00,30.0,28.3,00.0,38.9,31.7,06.8,0000.0,0012.08,0004.23,0003.50
2022-10-20 05:41:00,,0832.5,4.98,0.00,30.0,28.3,00.0,38.9,31.7,06.8,0000.0,0011.89,0004.21,0003.52
2022-10-20 05:42:00,,0832.5,5.01,0.00,30.0,28.3,00.0,38.9,31.7,06.9,-000.1,0010.86,0004.21,0003.54
2022-10-20 05:43:00,,0832.5,5.01,0.00,30.0,28.3,00.0,38.9,31.7,06.9,-001.3,0011.40,0004.25,0003.56
2022-10-20 05:44:00,,0832.5,5.00,0.00,29.9,28.2,00.0,38.9,31.6,06.9,-000.8,0011.95,0004.26,0003.57
2022-10-20 05:45:00,,0832.5,4.99,0.00,29.9,28.2,00.0,38.9,31.7,07.0,0000.6,0011.96,0004.28,0003.57
2022-10-20 05:46:00,,0832.5,5.00,0.00,29.9,28.2,00.0,38.9,31.7,06.9,0000.0,0012.08,0004.28,0003.55
2022-10-20 05:47:00,,0832.5,5.00,0.00,29.9,28.2,00.0,38.9,31.7,06.9,0000.0,0011.67,0004.28,0003.57
2022-10-20 05:48:00,,0832.5,4.99,0.00,29.9,28.2,00.0,38.9,31.7,06.9,0000.2,0012.41,0004.25,0003.58
2022-10-20 05:49:00,,0832.5,4.99,0.00,29.9,28.2,00.0,38.9,31.7,06.8,0002.6,0012.20,0004.26,0003.60
2022-10-20 05:50:00,,0832.5,5.00,0.00,29.9,28.2,00.0,38.9,31.7,06.9,0003.5,0012.19,0004.29,0003.61
2022-10-20 05:51:00,,0832.5,5.00,0.00,29.9,28.2,00.0,38.8,31.7,06.9,0002.8,0011.65,0004.30,0003.63
2022-10-20 05:52:00,,0832.4,5.01,0.00,29.9,28.2,00.0,38.8,31.7,06.9,0002.9,0011.63,0004.33,0003.64
2022-10-20 05:53:00,,0832.4,5.01,0.00,29.9,28.2,00.0,38.8,31.6,06.9,0001.6,0011.68,0004.37,0003.65
2022-10-20 05:54:00,,0832.5,5.00,0.00,29.9,28.2,00.0,38.8,31.6,06.9,0001.5,0011.34,0004.33,0003.64
2022-10-20 05:55:00,,0832.5,4.99,0.00,29.9,28.2,00.0,38.8,31.6,06.9,0000.7,0011.40,0004.31,0003.65
2022-10-20 05:56:00,,0832.4,5.00,0.00,29.9,28.2,00.0,38.8,31.6,07.0,-000.4,0011.34,0004.30,0003.65
2022-10-20 05:57:00,,0832.5,5.00,0.00,29.9,28.1,00.0,38.8,31.6,07.1,-000.8,0011.18,0004.30,0003.65
2022-10-20 05:58:00,,0832.4,5.01,0.00,29.9,28.1,00.0,38.8,31.6,07.1,-000.5,0010.90,0004.25,0003.64
2022-10-20 05:59:00,,0832.4,5.00,0.00,29.8,28.1,00.0,38.8,31.6,07.1,0000.0,0010.52,0004.22,0003.63
